Flag for Canada Weather past 2 weeks in Kitchener, Ontario, Canada

Now
32 °F

Partly sunny.


Feels Like: 26 °F
Forecast: 22 / 34 °F
Wind: 7 mph from East

Location: Waterloo Well

Current Time: Dec 22, 2014 at 2:38:19 PM

Latest Report: Dec 22, 2014 at 2:00 PM


Visibility: 9 mi

Pressure: 30.10 "Hg

Humidity: 80%

Dew point: 27 °F

Location of KitchenerLocation

Historic Weather in Kitchener — Graph

°F

Kitchener temperature yesterday

Maximum temperature yesterday: 30 °F (at 1:00 PM)
Minimum temperature yesterday: 21 °F (at 7:00 PM)
Average temperature yesterday: 26 °F

Past Weeks' High & Low Weather Summary

 TemperatureHumidityPressure
High41 °F (Dec 16, 11:59 PM)100% (Dec 12, 11:00 PM)30.72 "Hg (Dec 12, 11:00 PM)
Low16 °F (Dec 20, 7:00 AM)40% (Dec 7, 1:00 PM)29.70 "Hg (Dec 16, 2:00 PM)
Average31 °F86%30.10 "Hg
* Reported Dec 7 1:00 PM — Dec 22 1:00 PM, Kitchener, Weather by CustomWeather, © 2014

Note: Actual official high and low records may vary slightly from our data, if they occured in-between our weather recording intervals... More about our weather records

Advertising

Kitchener weather history for previous 24 hours

 ConditionsComfort  
Time TempWeatherWind HumidityBarometerVisibility
1:00 PM
Dec 22
32 °FOvercast.8 mph80%30.11 "Hg9 mi
12:00 PM30 °FOvercast.9 mph80%30.14 "Hg9 mi
11:00 AM30 °FOvercast.9 mph86%30.17 "Hg9 mi
10:00 AM28 °FOvercast.8 mph86%30.20 "Hg9 mi
9:00 AM28 °FOvercast.10 mph86%30.18 "Hg9 mi
8:00 AM28 °FOvercast.8 mph86%30.21 "Hg9 mi
7:00 AM28 °FOvercast.7 mph86%30.21 "Hg9 mi
6:00 AM28 °FOvercast.8 mph86%30.20 "Hg9 mi
5:00 AM28 °FOvercast.7 mph86%30.20 "Hg9 mi
4:00 AM27 °FOvercast.7 mph86%30.22 "Hg9 mi
3:00 AM27 °FOvercast.6 mph86%30.24 "Hg9 mi
2:00 AM27 °FOvercast.7 mph86%30.24 "Hg9 mi
1:00 AM25 °FOvercast.6 mph86%30.26 "Hg8 mi
12:00 AM23 °FOvercast.6 mph86%30.28 "Hg8 mi
11:01 PM
Dec 21
21 °FIce fog.2 mph86%30.29 "Hg6 mi
10:00 PM21 °FClear.6 mph86%30.29 "Hg7 mi
9:00 PM21 °FClear.5 mph93%30.30 "Hg8 mi
8:00 PM21 °FPassing clouds.2 mph93%30.31 "Hg8 mi
7:00 PM21 °FClear.6 mph86%30.31 "Hg9 mi
6:00 PM23 °FClear.3 mph86%30.31 "Hg9 mi
5:00 PM25 °FPassing clouds.5 mph80%30.30 "Hg9 mi
4:00 PM28 °FScattered clouds.3 mph69%30.29 "Hg9 mi
3:00 PM28 °FOvercast.2 mph69%30.29 "Hg9 mi
2:00 PM28 °FOvercast.5 mph74%30.29 "Hg9 mi
Weather by CustomWeather, © 2014

See weather overviewHow to use our weather pages